Regional Weather Roundup
Issued by NWS

Home | Current Version | Previous Version | Graphics & Text | Print | Product List | Glossary On
Versions: 1 2 3 4 5 6 7 8 9 10 11 12 13 14 15 16 17 18 19 20 21 22 23 24 25 26 27 28 29 30 31 32 33 34 35 36 37 38 39 40 41 42 43 44 45 46 47 48 49 50
000
ASUS45 KPSR 290000
RWRAZ

ARIZONA HOURLY REGIONAL WEATHER ROUNDUP
NATIONAL WEATHER SERVICE PHOENIX AZ
500 PM MST FRI AUG 28 2015

NOTE: FAIR INDICATES FEW OR NO CLOUDS BELOW 12,000 FEET WITH NO
SIGNIFICANT WEATHER AND/OR OBSTRUCTIONS TO VISIBILITY.

AZZ001>003-036-290100-
NORTHWEST ARIZONA

CITY           SKY/WX    TMP DP  RH WIND       PRES   REMARKS
KINGMAN        CLOUDY    97  46  17 SW5       29.99F
6HR MIN TEMP:  93; 6HR MAX TEMP: 101;

$$

AZZ004>008-015-016-018-290100-
NORTH CENTRAL ARIZONA

CITY           SKY/WX    TMP DP  RH WIND       PRES   REMARKS
GRAND CANYON   MOSUNNY   80  41  24 CALM      30.27F
6HR MIN TEMP:  74; 6HR MAX TEMP:  83;

WILLIAMS       PTSUNNY   75  52  43 S5        30.33F
PRESCOTT       PTSUNNY   90  42  18 W7        30.11F
6HR MIN TEMP:  84; 6HR MAX TEMP:  92;

FLAGSTAFF      NOT AVBL
PAYSON         MOSUNNY   90  45  20 N7        30.13S
PAGE           SUNNY     95  36  12 VRB6      30.07F
6HR MIN TEMP:  85; 6HR MAX TEMP:  96;

$$

AZZ009>014-017-290100-
NORTHEAST ARIZONA

CITY           SKY/WX    TMP DP  RH WIND       PRES   REMARKS
WINSLOW        NOT AVBL
SAINT JOHNS    SUNNY     87  45  23 CALM      30.14F
6HR MIN TEMP:  80; 6HR MAX TEMP:  88;

SHOW LOW       SUNNY     81  39  22 N6        30.23F
$$

AZZ023-290100-
GREATER PHOENIX AREA

CITY           SKY/WX    TMP DP  RH WIND       PRES   REMARKS
PHOENIX        MOSUNNY  107  51  15 VRB5      29.75F HX 104
6HR MIN TEMP:  95; 6HR MAX TEMP: 109;

GLENDALE       MOSUNNY  109  52  15 SW8       29.77F HX 107
DEER VALLEY    SUNNY    105  53  17 SW9G16    29.78F HX 103
6HR MIN TEMP:  94; 6HR MAX TEMP: 106;

SCOTTSDALE     MOSUNNY  106  49  14 SW7       29.79F HX 103
6HR MIN TEMP:  93; 6HR MAX TEMP: 106;

MESA-FALCON    MOSUNNY  106  54  17 SW12      29.77F HX 104
MESA-GATEWAY   MOSUNNY  104  55  20 W9        29.80F HX 103
CHANDLER       MOSUNNY  106  52  16 SW9       29.77F HX 103
$$

AZZ027-028-290100-
SOUTHWEST MARICOPA COUNTY AND PINAL COUNTY

CITY           SKY/WX    TMP DP  RH WIND       PRES   REMARKS
CASA GRANDE    SUNNY    104  55  20 SW7G18    29.79S HX 103
6HR MIN TEMP:  95; 6HR MAX TEMP: 106;

$$

AZZ503-504-507>509-290100-
SOUTHEAST ARIZONA

CITY           SKY/WX    TMP DP  RH WIND       PRES   REMARKS
TUCSON         SUNNY     99  52  20 W5        29.92S
6HR MIN TEMP:  90; 6HR MAX TEMP: 102;

RYAN FIELD     SUNNY     99  54  22 W5        29.90F
NOGALES        MOSUNNY   94  49  21 W6        30.01S
6HR MIN TEMP:  88; 6HR MAX TEMP:  97;

SAFFORD        MOSUNNY   98  50  19 W3        29.92S
6HR MIN TEMP:  85; 6HR MAX TEMP: 100;

$$

AZZ020-021-025-026-031-290100-
SOUTHWEST ARIZONA

CITY           SKY/WX    TMP DP  RH WIND       PRES   REMARKS
YUMA           PTSUNNY  110  59  19 S6        29.70F HX 111
6HR MIN TEMP: 103; 6HR MAX TEMP: 111;

$$

CAZ031-033-041-043-047-048-061-290100-
SOUTHERN CALIFORNIA

CITY           SKY/WX    TMP DP  RH WIND       PRES   REMARKS
DOWNTOWN L.A.  SUNNY     89  56  32 VRB3      29.81F
6HR MIN TEMP:  88; 6HR MAX TEMP:  97;

L.A. AIRPORT   MOSUNNY   82  61  48 W14       29.83S
6HR MIN TEMP:  82; 6HR MAX TEMP:  86;

SAN DIEGO      MOSUNNY   86  63  45 NW7       29.83S
6HR MIN TEMP:  85; 6HR MAX TEMP:  90;

BURBANK        SUNNY     97  53  22 S13       29.82F
6HR MIN TEMP:  93; 6HR MAX TEMP: 102;

ONTARIO        MOSUNNY  101  48  16 W14G24    29.82F
6HR MIN TEMP:  94; 6HR MAX TEMP: 106;

RIVERSIDE      SUNNY    101  47  16 W15G21    29.81S
6HR MIN TEMP:  94; 6HR MAX TEMP: 105;

PALM SPRINGS   MOSUNNY  111  54  15 E9        29.73F HX 109
6HR MIN TEMP: 100; 6HR MAX TEMP: 112;

EL CENTRO NAS  MOSUNNY  110  53  15 CALM      29.70F HX 108
6HR MIN TEMP: 104; 6HR MAX TEMP: 111;

IMPERIAL       SUNNY    112  55  15 E8        29.68F HX 111
6HR MIN TEMP: 102; 6HR MAX TEMP: 112;

BLYTHE         MOSUNNY  110  59  19 S8        29.72F HX 111
6HR MIN TEMP: 101; 6HR MAX TEMP: 110;

$$

NVZ020-UTZ003-290100-
SOUTHERN NEVADA-UTAH

CITY           SKY/WX    TMP DP  RH WIND       PRES   REMARKS
LAS VEGAS      NOT AVBL
SALT LAKE CITY MOSUNNY   92  34  13 MISG      30.05F
6HR MIN TEMP:  84; 6HR MAX TEMP:  94;

$$

NMZ009-TXZ055-290100-
NEW MEXICO-WEST TEXAS

CITY           SKY/WX    TMP DP  RH WIND       PRES   REMARKS
ALBUQUERQUE    MOSUNNY   84  49  29 E29G35    30.12S
6HR MIN TEMP:  81; 6HR MAX TEMP:  91;

EL PASO        PTSUNNY   95  48  20 NW13      29.97S
6HR MIN TEMP:  89; 6HR MAX TEMP:  98;

$$


........................KEY........................
SKY/WX - SKY CONDITION/WEATHER
TMP    - TEMPERATURE IN FAHRENHEIT
DP     - DEW POINT IN FAHRENHEIT
RH     - RELATIVE HUMIDITY IN PERCENT
WIND   - DIRECTION AND SPEED IN MILES PER HOUR (MPH)
VRB    - VARIABLE WIND DIRECTION
PRES   - MEAN SEA LEVEL PRESSURE IN INCHES OF MERCURY
         F - FALLING PRESSURE   R - RISING PRESSURE
         S - STEADY PRESSURE
VSB    - VISIBILITY IN MILES
HX     - HEAT INDEX IN FAHRENHEIT
WCI    - WIND CHILL INDEX IN FAHRENHEIT
TC     - TEMPERATURE IN CELSIUS WHICH IS ALSO KNOWN AS
         TEMPERATURE IN CENTIGRADE
AFB    - AIR FORCE BASE
         LUKE AFB IS LUKE AIR FORCE BASE
         DAVIS-MONTHAN IS DAVIS-MONTHAN AIR FORCE BASE
NAS    - NAVAL AIR STATION
         EL CENTRO NAS IS EL CENTRO NAVAL AIR STATION
N/A    - NOT AVAILABLE



USA.gov is the U.S. government's official web portal to all federal, state and local government web resources and services.